Location: Beuvrequen
(50.8014°N, 1.6652°E)
Time: 20:00:54
(UTC+00:00)

Cosmos 1980 Rocket - Pass Details

Date: 16 October 2021
Orbit: 828 x 851 km, 71.0° (Epoch: 05 December)

Event Time Altitude Azimuth Distance (km) Brightness Sun altitude
Rises 20:44:50 0° 258° (WSW) 3,395 5.9 -35.2°
Reaches altitude 10° 20:47:51 10° 273° (W) 2,468 5.2 -35.6°
Maximum altitude 20:52:10 22° 323° (NW) 1,781 4.4 -36.2°
Drops below altitude 10° 20:56:32 10° 13° (NNE) 2,486 4.8 -36.7°
Enters shadow 20:58:13 - 23° (NNE) 2,984 5.2 -36.9°
